Flag for Trinidad and Tobago Weather past 2 weeks in Scarborough, Trinidad and Tobago

Now
82 °F

Passing clouds.


Feels Like: 88 °F
Forecast: N/A
Wind: 6 mph from East

Location: Crown Pt./ Scarborou

Current Time: Sep 16, 2014 at 7:54:59 PM

Latest Report: Sep 16, 2014 at 7:00 PM


Visibility: N/A

Pressure: 29.89 "Hg

Humidity: 74%

Dew point: 73 °F

Location of ScarboroughLocation

Historic Weather in Scarborough — Graph

°F

Scarborough temperature yesterday

Maximum temperature yesterday: 90 °F (at 11:00 AM)
Minimum temperature yesterday: 79 °F (at 2:00 AM)
Average temperature yesterday: 84 °F

Past Weeks' High & Low Weather Summary

 TemperatureHumidityPressure
High91 °F (Sep 5, 12:00 PM)100% (Sep 3, 8:00 AM)30.04 "Hg (Sep 3, 8:00 AM)
Low77 °F (Sep 1, 9:00 PM)55% (Sep 9, 9:00 AM)29.83 "Hg (Sep 11, 4:00 PM)
Average83 °F77%29.93 "Hg
* Reported Sep 1 6:00 PM — Sep 16 6:00 PM, Scarborough, Weather by CustomWeather, © 2014

Note: Actual official high and low records may vary slightly from our data, if they occured in-between our weather recording intervals... More about our weather records

Advertising

Scarborough weather history for previous 24 hours

 ConditionsComfort  
Time TempWeatherWind HumidityBarometerVisibility
6:00 PM
Sep 16
84 °FScattered clouds.7 mph70%29.89 "HgN/A
5:00 PM84 °FScattered clouds.12 mph74%29.89 "HgN/A
4:00 PM88 °FScattered clouds.9 mph62%29.89 "HgN/A
3:00 PM86 °FPassing clouds.9 mph70%29.89 "HgN/A
2:00 PM88 °FScattered clouds.12 mph62%29.92 "HgN/A
1:00 PM88 °FScattered clouds.13 mph62%29.92 "HgN/A
12:00 PM88 °FScattered clouds.14 mph62%29.98 "HgN/A
11:00 AM88 °FScattered clouds.13 mph62%29.98 "HgN/A
10:00 AM86 °FScattered clouds.12 mph70%29.98 "HgN/A
9:00 AM84 °FScattered clouds.6 mph79%29.98 "HgN/A
8:00 AM84 °FScattered clouds.No wind79%29.98 "HgN/A
7:00 AM79 °FPassing clouds.No wind79%29.95 "HgN/A
6:00 AM77 °FPassing clouds.No wind83%29.95 "HgN/A
2:00 AM79 °FPassing clouds.No wind84%29.95 "HgN/A
1:00 AM79 °FPassing clouds.No wind84%29.95 "HgN/A
12:00 AM79 °FPassing clouds.No wind84%29.98 "HgN/A
11:00 PM
Sep 15
81 °FPassing clouds.No wind79%29.98 "HgN/A
10:00 PM81 °FPassing clouds.No wind79%30.01 "HgN/A
9:00 PM81 °FPassing clouds.No wind79%29.98 "HgN/A
8:00 PM82 °FPassing clouds.No wind79%29.98 "HgN/A
7:00 PM82 °FPassing clouds.3 mph79%29.95 "HgN/A
Weather by CustomWeather, © 2014

See weather overviewHow to use our weather pages